Miscellaneous Local Product
Issued by NWS North Platte, NE

Home | Current Version | Previous Version | Graphics & Text | Print | Product List | Glossary On
Versions: 1 2 3 4 5 6 7 8 9 10 11 12 13 14 15 16 17 18 19 20 21 22 23 24 25 26 27 28 29 30 31 32 33 34 35 36 37 38 39 40 41 42 43 44 45 46 47 48 49 50
782
AXUS43 KLBF 251510
MISLBF


WESTERN AND NORTH CENTRAL NEBRASKA HOURLY WEATHER ROUNDUP
NATIONAL WEATHER SERVICE NORTH PLATTE NE
1000 AM CDT MON JUL 25 2016

NOTE: "FAIR" INDICATES FEW OR NO CLOUDS BELOW 12,000 FEET WITH NO
SIGNIFICANT WEATHER AND/OR OBSTRUCTIONS TO VISIBILITY.

NOTE: STATIONS NOT REPORTING VARIABLES SUCH AS SKY/WEATHER OR
PRESSURE ARE PROVIDED BY RAWS AND APRS NETWORKS AND ARE NOT UNDER
NATIONAL WEATHER SERVICE QUALITY CONTROL.

...OBSERVATIONS IN AND NEAR THE EASTERN PANHANDLE OF NEBRASKA...

CITY           SKY/WX    TMP DP  RH WIND       PRES   REMARKS
PINE RIDGE     SUNNY     77  60  55 S14G23    30.14S
CHADRON        SUNNY     77  54  44 S17       30.13S
ALLIANCE       SUNNY     72  61  68 SE13      30.19R
SIDNEY         SUNNY     73  56  54 S15       30.22R
CRESCENT LAKE    N/A     73  62  68 S6G14       N/A
$$

...OBSERVATIONS IN NORTHERN NEBRASKA AND FAR SOUTHERN SOUTH DAKOTA...

CITY           SKY/WX    TMP DP  RH WIND       PRES   REMARKS
WINNER         FAIR      81  48  31 S17       30.13S
VALENTINE      SUNNY     79  57  46 S15       30.16S
THEDFORD       SUNNY     76  60  57 S10       30.20S
AINSWORTH      SUNNY     78  50  38 S12G17    30.17S
O`NEILL        SUNNY     79  56  44 S9        30.18R
ORD            MOSUNNY   74  56  53 S12       30.18R
BROKEN BOW     SUNNY     72  59  63 SE13      30.19S
VALENTINE NWR    N/A     74  61  64 S9          N/A
BUTTE            N/A     76  60  56 S7          N/A
HALSEY           N/A     73  61  65 SE7         N/A
EWING            N/A     77  63  62 SE5         N/A
$$

...OBSERVATIONS IN SOUTHWEST NEBRASKA AND FAR NORTHEAST COLORADO...

CITY           SKY/WX    TMP DP  RH WIND       PRES   REMARKS
HOLYOKE        FAIR      73  63  68 W9        30.20S
IMPERIAL       SUNNY     71  61  70 SE8       30.19F
OGALLALA       SUNNY     74  62  64 SE12      30.20R
NORTH PLATTE   SUNNY     73  64  73 SE9       30.19S
MCCOOK         SUNNY     76  62  62 E9        30.18R
LEXINGTON      SUNNY     74  62  67 E15       30.18F
STAPLETON        N/A     75  64  69 CALM        N/A
GOTHENBURG       N/A     69  60  74 E5          N/A
CALLAWAY         N/A     70  64  80 SE10        N/A
$$

...OBSERVATIONS IN CENTRAL LINCOLN COUNTY AREA...

CITY           SKY/WX    TMP DP  RH WIND       PRES   REMARKS
N.P. AIRPORT   SUNNY     73  64  73 SE9       30.19S
N.P. DOWNTOWN    N/A     74  64  71 E3          N/A
N.P. SOUTHEAST   N/A     73  64  73 SE3         N/A
N.P. HILLCREST   N/A     72  64  74 SE9         N/A
$$

...SOME OBSERVATIONS FROM AROUND THE REGION...

CITY           SKY/WX    TMP DP  RH WIND       PRES   REMARKS
DENVER         MOSUNNY   70  54  56 CALM      30.22R
LARAMIE        SUNNY     68  42  38 E5        30.33S
CHEYENNE       SUNNY     68  58  70 S7        30.25R
SCOTTSBLUFF    SUNNY     72  57  59 SE12      30.17F
RAPID CITY     SUNNY     78  56  46 S23G31    30.09S
BISMARCK       SUNNY     77  62  59 S9        30.00S
PIERRE         LGT RAIN  83  56  39 S20       30.05F
SIOUX FALLS    MOSUNNY   77  63  61 SW5       30.13R
OMAHA          CLOUDY    77  66  68 S3        30.13R
GRAND ISLAND   CLOUDY    73  61  65 SE7       30.18F
KANSAS CITY    CLOUDY    75  67  76 NE7       30.10R
WICHITA        CLOUDY    74  68  81 E12       30.06R
OKLAHOMA CITY  MOSUNNY   86  70  58 E8        30.04R HX  90
DALLAS         CLOUDY    87  72  60 SW5       29.98S HX  93
AMARILLO       SUNNY     81  63  54 CALM      30.16R
DODGE CITY     CLOUDY    71  67  87 NE14      30.16R
HAYS           CLOUDY    70  61  73 CALM      30.16R
GOODLAND       SUNNY     72  61  68 E5        30.20R
$$




USA.gov is the U.S. government's official web portal to all federal, state and local government web resources and services.